Location: Bothwell
(41.7170°N, 112.2589°W)
Time: 01:27:42
(UTC+00:00)

S-56A Canister/Altair - Visible Passes

Search period start: 12 May 2026 00:00
Search period end: 22 May 2026 00:00
Orbit: 633 x 2484 km, 38.9° (Epoch: 11 May)

Date Brightness Start Highest point End Pass type
(mag) Time Alt. Az. Time Alt. Az. Time Alt. Az.
12 May 8.2 04:03:43 10° SSW 04:07:14 23° SSE 04:07:15 23° SSE visible
12 May 9.6 08:17:54 23° ESE 08:17:54 23° ESE 08:20:49 10° ESE visible
12 May 9.0 10:15:14 28° SW 10:17:16 32° SSW 10:25:12 10° SE visible
13 May 8.5 03:29:21 10° SSW 03:32:33 19° SSE 03:35:11 12° ESE visible
13 May 8.9 05:30:59 10° WSW 05:32:31 21° WSW 05:32:31 21° WSW visible
13 May 9.0 09:43:24 33° S 09:43:24 33° S 09:49:47 10° SE visible
14 May 7.4 04:56:21 10° WSW 05:00:13 47° S 05:00:13 47° S visible
14 May 9.8 09:11:47 19° SSE 09:11:47 19° SSE 09:14:24 10° SE visible
14 May 9.8 11:09:10 13° SW 11:11:06 14° SSW 11:15:16 10° S visible
15 May 7.4 04:21:40 10° SW 04:25:54 43° SSE 04:27:43 29° ESE visible
15 May 9.6 06:24:33 10° W 06:25:00 13° W 06:25:00 13° W visible
15 May 10.0 10:37:43 14° SSW 10:37:43 14° SSW 10:40:33 10° S visible
16 May 7.6 03:46:56 10° SW 03:51:12 38° SSE 03:55:01 12° E visible
16 May 8.3 05:49:53 10° W 05:52:18 32° WSW 05:52:18 32° WSW visible
17 May 7.9 03:12:09 10° SW 03:16:30 34° SSE 03:20:32 10° E visible
17 May 7.1 05:15:10 10° WSW 05:19:27 62° S 05:19:27 62° S visible
18 May 7.1 04:40:23 10° WSW 04:44:49 61° S 04:46:30 35° ESE visible
18 May 9.7 06:43:38 10° W 06:43:46 11° W 06:43:46 11° W visible
19 May 7.2 04:05:32 10° WSW 04:10:05 58° S 04:13:29 16° E visible
19 May 8.8 06:08:56 10° W 06:10:44 23° WSW 06:10:44 23° WSW visible
20 May 7.3 03:30:36 10° WSW 03:35:22 55° S 03:39:43 10° E visible
20 May 7.6 05:34:11 10° W 05:37:39 45° SW 05:37:39 45° SW visible
21 May 7.2 04:59:22 10° W 05:03:47 57° S 05:04:32 49° SSE visible
